User: anonymous   Login
Location: Sternwarte Hubelmatt
(47.0367°N, 8.3053°E)
Time: 06:43:01
(UTC+02:00)
Language:

UKube-1 - Orbit

View from above orbital plane
View from above orbital plane
View from above satellite
View from above satellite

Ground track
Ground track

The orbit data is extracted from the following two-line orbital elements,

1 40074U 14037F   24106.75056799  .00011354  00000-0  11109-2 0  9999
2 40074  98.3411  32.9064 0002086 289.8640  70.2353 14.92498530529461
Epoch (UTC): 15 April 2024 18:00:49
Eccentricity: 0.0002086
inclination: 98.3411°
perigee height: 589 km
apogee height: 591 km
right ascension of ascending node: 32.9064°
argument of perigee: 289.8640°
revolutions per day: 14.92498530
mean anomaly at epoch: 70.2353°
orbit number at epoch: 52946

The dashed part of the orbit path shows where the satellite is in the earth's shadow,  

DLR